�N����,����,�~����,�C��,���x,�C��,����,���ϕ���,�ő�u�ԕ���,�ő厞����,���˗�,�I�_���x,�n�����x,�ő啗���N��,DTYPE
"16/11/28","00:10",0.0,11.3,98.2,1009.3,301.6,2.0,4.8,240.6,0.00,11.1,12.6,"00:01:54",1
"16/11/28","00:20",0.0,11.2,98.1,1009.3,295.6,1.6,4.4,240.5,0.00,11.0,12.7,"00:10:18",1
"16/11/28","00:30",0.0,11.1,98.1,1008.6,310.6,1.3,2.4,311.3,0.00,10.9,12.5,"00:25:52",1
"16/11/28","00:40",0.0,11.0,98.1,1009.0,310.6,1.2,2.1,321.4,0.00,10.8,12.4,"00:34:04",1
"16/11/28","00:50",0.0,10.9,98.1,1008.8,307.0,1.2,2.1,317.1,0.00,10.7,12.5,"00:41:44",1
"16/11/28","01:00",0.0,10.9,98.2,1008.8,277.5,1.5,2.7,236.8,0.00,10.7,12.4,"00:59:20",1
"16/11/28","01:10",0.0,10.8,98.0,1009.0,289.0,1.5,2.5,241.2,0.00,10.5,12.2,"01:02:00",1
"16/11/28","01:20",0.0,10.7,98.0,1009.3,288.4,1.0,1.6,330.1,0.00,10.4,12.4,"01:10:08",1
"16/11/28","01:30",0.0,10.6,98.1,1009.3,285.1,1.5,3.4,343.9,0.00,10.4,12.4,"01:26:52",1
"16/11/28","01:40",0.0,10.7,98.0,1009.5,277.2,1.2,1.8,246.7,0.00,10.4,12.4,"01:30:32",1
"16/11/28","01:50",0.0,10.5,97.9,1009.3,309.6,1.0,1.6,334.2,0.00,10.2,12.3,"01:40:18",1
"16/11/28","02:00",0.0,9.9,98.6,1009.0,291.0,1.1,1.7,313.0,0.00,9.7,12.4,"01:51:46",1
"16/11/28","02:10",0.0,9.8,98.2,1009.0,318.5,1.0,1.6,323.4,0.00,9.6,12.2,"02:05:06",1
"16/11/28","02:20",0.0,9.5,98.1,1009.3,328.4,1.1,2.0,329.8,0.00,9.3,12.3,"02:12:00",1
"16/11/28","02:30",0.0,9.4,98.2,1009.5,305.1,1.1,1.9,321.6,0.00,9.2,12.2,"02:21:20",1
"16/11/28","02:40",0.0,9.5,98.3,1009.3,302.5,1.2,2.8,317.3,0.00,9.3,12.2,"02:31:04",1
"16/11/28","02:50",0.0,9.5,98.3,1009.3,300.5,1.1,1.6,317.3,0.00,9.3,12.3,"02:44:48",1
"16/11/28","03:00",0.0,9.5,98.2,1009.3,318.6,1.0,1.6,329.7,0.00,9.3,12.3,"02:54:34",1
"16/11/28","03:10",0.0,9.4,98.2,1009.3,305.8,1.0,1.7,305.4,0.00,9.2,12.2,"03:08:04",1
"16/11/28","03:20",0.0,9.4,98.3,1010.0,319.2,1.1,2.4,339.9,0.00,9.2,12.1,"03:15:32",1
"16/11/28","03:30",0.0,9.4,98.3,1009.7,283.6,0.7,1.6,334.7,0.00,9.2,12.1,"03:25:24",1
"16/11/28","03:40",0.0,9.5,98.3,1009.5,287.2,0.8,1.6,251.1,0.00,9.3,12.2,"03:33:58",1
"16/11/28","03:50",0.0,9.2,98.2,1009.7,319.0,1.0,1.8,325.0,0.00,9.0,12.1,"03:47:00",1
"16/11/28","04:00",0.0,8.9,98.3,1009.5,311.8,1.1,1.8,319.4,0.00,8.7,12.1,"03:56:48",1
"16/11/28","04:10",0.0,8.9,98.4,1010.2,333.3,0.8,1.7,330.9,0.00,8.7,12.1,"04:06:24",1
"16/11/28","04:20",0.0,9.0,98.4,1009.7,330.7,0.6,1.1,354.4,0.00,8.8,12.0,"04:10:26",1
"16/11/28","04:30",0.0,9.4,98.6,1010.2,280.8,1.1,3.1,255.5,0.00,9.2,11.8,"04:27:42",1
"16/11/28","04:40",0.0,9.7,98.5,1010.2,327.8,1.5,2.8,338.0,0.00,9.5,12.0,"04:36:00",1
"16/11/28","04:50",0.0,9.6,98.3,1010.2,316.1,0.7,1.6,313.1,0.00,9.4,11.9,"04:40:08",1
"16/11/28","05:00",0.0,9.5,98.3,1010.2,320.5,0.8,2.1,329.6,0.00,9.3,11.8,"04:54:30",1
"16/11/28","05:10",0.0,9.4,98.3,1010.4,332.6,0.8,1.8,345.5,0.00,9.2,12.2,"05:00:30",1
"16/11/28","05:20",0.0,9.2,98.3,1010.0,318.9,1.1,1.9,331.6,0.00,9.0,11.8,"05:11:42",1
"16/11/28","05:30",0.0,8.9,98.4,1010.2,297.4,1.1,2.0,314.5,0.00,8.7,11.8,"05:21:04",1
"16/11/28","05:40",0.0,8.7,98.4,1010.2,303.0,0.5,1.8,309.6,0.00,8.5,11.7,"05:30:08",1
"16/11/28","05:50",0.0,8.9,98.6,1010.4,218.2,0.7,1.7,234.9,0.00,8.7,11.8,"05:44:16",1
"16/11/28","06:00",0.0,9.3,98.7,1010.4,309.1,1.8,3.5,329.9,0.00,9.1,11.8,"05:52:48",1
"16/11/28","06:10",0.0,9.3,98.4,1010.9,250.5,0.5,1.7,306.0,0.00,9.1,11.6,"06:09:36",1
"16/11/28","06:20",0.0,9.1,98.6,1010.7,282.2,0.8,2.5,273.1,0.00,8.9,11.6,"06:18:10",1
"16/11/28","06:30",0.0,9.4,98.5,1010.4,257.7,1.1,1.7,236.1,0.00,9.2,11.8,"06:22:56",1
"16/11/28","06:40",0.0,9.2,98.3,1010.9,286.4,1.1,1.8,319.8,0.00,9.0,11.8,"06:38:14",1
"16/11/28","06:50",0.0,8.8,98.3,1011.4,305.8,1.2,2.1,333.5,0.00,8.6,11.8,"06:42:02",1
"16/11/28","07:00",0.0,8.7,98.4,1011.4,322.0,1.1,2.6,341.8,0.00,8.5,11.7,"06:51:00",1
"16/11/28","07:10",0.0,8.8,98.4,1010.9,313.3,1.0,2.1,316.9,0.00,8.6,11.7,"07:04:30",1
"16/11/28","07:20",0.0,8.5,98.4,1011.4,314.4,1.1,2.0,340.3,0.00,8.3,11.5,"07:12:36",1
"16/11/28","07:30",0.0,8.4,98.5,1011.6,295.6,0.8,1.3,325.0,0.00,8.2,11.6,"07:29:28",1
"16/11/28","07:40",0.0,8.5,98.6,1011.6,23.9,0.6,1.6,324.5,0.00,8.3,11.5,"07:39:04",1
"16/11/28","07:50",0.0,8.6,98.6,1012.1,315.5,1.5,2.0,339.3,0.01,8.4,11.7,"07:49:16",1
"16/11/28","08:00",0.0,8.7,98.6,1011.9,305.9,0.8,1.7,322.8,0.03,8.5,11.6,"07:54:50",1
"16/11/28","08:10",0.0,9.0,98.6,1012.3,316.5,1.2,1.4,329.0,0.01,8.8,11.7,"08:01:12",1
"16/11/28","08:20",0.0,9.4,98.6,1012.6,307.9,1.3,1.6,327.9,0.01,9.2,11.6,"08:17:44",1
"16/11/28","08:30",0.0,9.6,98.5,1012.3,320.3,0.9,0.9,320.4,0.02,9.4,11.7,"08:26:24",1
"16/11/28","08:40",0.0,9.9,98.4,1013.0,318.7,1.7,2.5,307.5,0.07,9.7,11.8,"08:37:18",1
"16/11/28","08:50",0.0,10.1,96.9,1013.0,289.8,1.5,3.1,348.0,0.10,9.7,11.8,"08:41:24",1
"16/11/28","09:00",0.0,10.2,93.1,1013.5,301.2,1.6,4.2,232.9,0.12,9.2,11.9,"08:54:10",1
"16/11/28","09:10",0.0,10.3,91.4,1013.8,207.3,1.3,2.6,127.8,0.12,9.0,11.9,"09:01:46",1
"16/11/28","09:20",0.0,10.4,89.0,1013.8,321.1,1.3,1.7,308.1,0.13,8.7,11.8,"09:17:36",1
"16/11/28","09:30",0.0,10.6,87.6,1014.0,275.8,0.5,1.7,326.2,0.14,8.7,12.0,"09:23:16",1
"16/11/28","09:40",0.0,10.9,86.5,1014.0,240.3,1.0,2.5,221.7,0.11,8.8,12.2,"09:31:12",1
"16/11/28","09:50",0.0,11.0,87.1,1014.7,306.8,1.8,3.4,323.9,0.09,9.0,12.1,"09:45:00",1
"16/11/28","10:00",0.0,10.9,83.1,1014.9,328.2,2.5,5.5,329.6,0.10,8.2,12.1,"09:57:40",1
"16/11/28","10:10",0.0,10.6,85.4,1014.9,311.4,4.1,4.3,311.9,0.09,8.3,12.2,"10:01:50",1
"16/11/28","10:20",0.0,10.6,83.4,1014.9,346.9,1.7,2.2,4.6,0.13,7.9,12.1,"10:19:38",1
"16/11/28","10:30",0.0,10.7,79.1,1014.5,342.3,1.7,3.1,322.4,0.14,7.3,12.2,"10:21:48",1
"16/11/28","10:40",0.0,11.0,76.2,1014.5,324.6,1.8,4.7,344.1,0.17,7.0,12.2,"10:35:48",1
"16/11/28","10:50",0.0,11.4,73.7,1014.7,280.5,1.6,3.9,232.0,0.18,6.9,12.4,"10:40:24",1
"16/11/28","11:00",0.0,12.3,71.9,1014.7,309.0,1.5,2.9,335.1,0.32,7.4,12.2,"10:58:56",1
"16/11/28","11:10",0.0,12.8,69.4,1014.7,310.8,2.3,6.2,342.3,0.36,7.4,12.5,"11:09:52",1
"16/11/28","11:20",0.0,12.6,67.3,1014.2,268.5,2.1,4.2,338.3,0.32,6.7,12.4,"11:19:28",1
"16/11/28","11:30",0.0,13.3,64.2,1014.0,314.0,1.8,3.7,194.1,0.40,6.7,12.6,"11:29:28",1
"16/11/28","11:40",0.0,13.5,59.3,1014.2,306.9,2.5,7.7,345.1,0.39,5.8,12.6,"11:33:52",1
"16/11/28","11:50",0.0,13.6,57.5,1014.5,315.3,3.2,7.3,341.5,0.42,5.4,13.0,"11:41:44",1
"16/11/28","12:00",0.0,14.0,56.8,1014.2,313.2,3.0,6.2,325.4,0.42,5.6,13.1,"11:59:36",1
"16/11/28","12:10",0.0,13.9,58.7,1014.2,314.3,3.7,8.1,324.5,0.42,6.0,13.0,"12:00:48",1
"16/11/28","12:20",0.0,13.3,66.4,1014.0,325.5,2.6,4.7,337.6,0.15,7.2,13.2,"12:10:40",1
"16/11/28","12:30",0.0,12.2,73.0,1014.2,330.6,2.5,5.0,317.5,0.09,7.5,13.3,"12:21:36",1
"16/11/28","12:40",0.0,12.3,70.0,1013.8,334.9,2.3,4.8,337.1,0.29,7.0,13.4,"12:36:00",1
"16/11/28","12:50",0.0,12.6,67.8,1013.8,328.5,1.8,3.2,340.0,0.24,6.9,13.4,"12:44:56",1
"16/11/28","13:00",0.0,13.1,64.0,1013.8,324.1,2.3,4.4,340.2,0.36,6.5,13.6,"12:54:24",1
"16/11/28","13:10",0.0,13.6,58.2,1014.0,299.3,2.2,4.7,287.6,0.30,5.6,13.5,"13:05:44",1
"16/11/28","13:20",0.0,12.8,66.9,1013.8,310.0,2.5,4.4,246.5,0.08,6.8,13.5,"13:12:08",1
"16/11/28","13:30",0.0,12.1,72.1,1013.5,326.4,2.8,4.9,324.4,0.03,7.3,13.5,"13:20:24",1
"16/11/28","13:40",0.0,11.6,75.9,1013.8,339.3,2.3,4.5,340.2,0.03,7.5,13.5,"13:36:00",1
"16/11/28","13:50",0.0,11.3,77.0,1014.0,331.6,2.3,4.0,337.9,0.06,7.5,13.5,"13:47:44",1
"16/11/28","14:00",0.0,12.1,71.0,1013.5,344.6,1.7,3.2,326.9,0.18,7.0,13.5,"13:53:04",1
"16/11/28","14:10",0.0,12.1,68.6,1013.8,312.3,1.6,4.1,347.8,0.11,6.5,13.2,"14:01:36",1
"16/11/28","14:20",0.0,12.1,74.7,1013.5,299.2,1.7,3.7,320.0,0.08,7.8,13.4,"14:18:16",1
"16/11/28","14:30",0.0,11.8,76.6,1014.0,297.5,1.7,2.9,312.0,0.04,7.9,13.5,"14:20:02",1
"16/11/28","14:40",0.0,11.6,76.1,1014.2,316.4,2.3,4.7,323.6,0.05,7.6,13.3,"14:31:28",1
"16/11/28","14:50",0.0,11.6,77.6,1014.0,310.3,2.0,3.6,344.0,0.05,7.9,13.4,"14:48:08",1
"16/11/28","15:00",0.0,11.6,79.5,1014.0,314.8,1.7,2.9,327.5,0.07,8.2,13.2,"14:56:08",1
"16/11/28","15:10",0.0,11.7,79.4,1014.0,321.8,1.7,2.2,340.9,0.08,8.3,13.3,"15:00:40",1
"16/11/28","15:20",0.0,12.1,71.9,1014.0,312.2,1.5,2.8,346.0,0.12,7.2,13.3,"15:19:20",1
"16/11/28","15:30",0.0,12.2,77.0,1014.5,340.9,1.3,2.8,330.7,0.05,8.3,13.4,"15:22:24",1
"16/11/28","15:40",0.0,11.5,78.3,1014.7,341.5,1.8,3.4,354.0,0.01,7.9,13.4,"15:36:24",1
"16/11/28","15:50",0.0,11.1,78.2,1014.9,313.4,2.3,4.4,336.0,0.03,7.5,13.2,"15:40:58",1
"16/11/28","16:00",0.0,10.8,80.0,1015.2,340.9,2.2,4.1,342.8,0.00,7.5,13.2,"15:57:12",1
"16/11/28","16:10",0.0,10.6,80.7,1014.9,325.9,2.0,4.4,343.6,0.00,7.5,13.2,"16:04:08",1
"16/11/28","16:20",0.0,10.7,82.7,1015.4,319.8,1.7,2.7,334.8,0.00,7.9,13.3,"16:18:24",1
"16/11/28","16:30",0.0,10.5,82.8,1015.2,317.9,1.7,3.2,346.4,0.00,7.7,13.1,"16:22:40",1
"16/11/28","16:40",0.0,10.3,82.0,1015.4,307.8,2.0,3.7,340.8,0.00,7.4,13.1,"16:38:32",1
"16/11/28","16:50",0.0,10.3,83.0,1015.4,290.0,1.6,2.5,295.0,0.00,7.6,13.0,"16:40:08",1
"16/11/28","17:00",0.0,10.2,83.4,1015.2,312.0,2.0,3.1,315.5,0.00,7.6,13.1,"16:53:20",1
"16/11/28","17:10",0.0,10.0,84.0,1015.4,317.6,1.6,2.2,295.0,0.00,7.5,12.9,"17:00:08",1
"16/11/28","17:20",0.0,9.8,85.6,1015.4,314.4,1.3,2.1,329.9,0.00,7.5,12.7,"17:18:22",1
"16/11/28","17:30",0.0,9.7,86.7,1015.6,301.5,1.5,2.0,266.8,0.00,7.6,12.8,"17:20:56",1
"16/11/28","17:40",0.0,9.6,87.5,1015.9,296.0,1.6,2.8,328.0,0.00,7.7,12.8,"17:35:00",1
"16/11/28","17:50",0.0,9.5,87.9,1015.6,288.8,1.5,2.1,325.9,0.00,7.6,12.7,"17:43:06",1
"16/11/28","18:00",0.0,9.4,88.4,1016.1,289.1,1.6,2.6,332.1,0.00,7.6,12.7,"17:59:10",1
"16/11/28","18:10",0.0,9.2,89.1,1015.9,329.6,1.3,1.9,345.1,0.00,7.5,12.7,"18:01:40",1
"16/11/28","18:20",0.0,8.9,90.2,1015.9,341.6,1.5,2.4,339.5,0.00,7.4,12.6,"18:15:54",1
"16/11/28","18:30",0.0,8.8,90.7,1016.1,328.2,1.6,2.5,332.3,0.00,7.4,12.5,"18:23:28",1
"16/11/28","18:40",0.0,8.6,91.1,1016.4,311.9,1.5,2.0,341.0,0.00,7.3,12.6,"18:30:16",1
"16/11/28","18:50",0.0,8.4,91.6,1016.4,329.5,1.6,2.6,331.6,0.00,7.2,12.4,"18:49:36",1
"16/11/28","19:00",0.0,8.3,92.1,1016.6,349.6,1.3,2.4,347.6,0.00,7.1,12.2,"18:51:52",1
"16/11/28","19:10",0.0,8.3,92.4,1016.6,312.2,1.3,2.0,326.0,0.00,7.2,12.2,"19:04:34",1
"16/11/28","19:20",0.0,7.9,92.8,1016.8,302.2,1.6,2.2,318.3,0.00,6.8,12.2,"19:15:04",1
"16/11/28","19:30",0.0,7.6,93.5,1016.8,302.2,1.7,2.6,331.4,0.00,6.7,12.3,"19:29:20",1
"16/11/28","19:40",0.0,7.7,94.0,1016.8,313.7,1.5,2.1,314.6,0.00,6.8,12.3,"19:31:52",1
"16/11/28","19:50",0.0,7.5,94.3,1017.1,296.7,1.3,2.0,306.8,0.00,6.7,12.1,"19:40:08",1
"16/11/28","20:00",0.0,7.2,94.7,1016.8,311.9,2.0,2.6,321.1,0.00,6.4,12.1,"19:52:00",1
"16/11/28","20:10",0.0,7.1,95.2,1016.8,325.5,1.7,2.6,321.6,0.00,6.4,11.8,"20:04:08",1
"16/11/28","20:20",0.0,7.0,95.3,1017.1,315.6,1.7,2.7,319.3,0.00,6.3,12.0,"20:19:04",1
"16/11/28","20:30",0.0,6.9,95.6,1017.1,310.7,2.2,3.2,326.0,0.00,6.3,11.8,"20:21:36",1
"16/11/28","20:40",0.0,7.3,95.9,1016.8,319.7,2.5,3.4,326.9,0.00,6.7,11.7,"20:35:04",1
"16/11/28","20:50",0.0,7.4,95.7,1016.8,324.4,2.1,2.7,332.5,0.00,6.8,11.7,"20:48:24",1
"16/11/28","21:00",0.0,7.2,95.7,1017.1,328.0,1.8,2.7,332.7,0.00,6.6,11.8,"20:51:04",1
"16/11/28","21:10",0.0,6.9,95.7,1017.3,317.4,2.5,3.6,321.6,0.00,6.3,11.6,"21:03:20",1
"16/11/28","21:20",0.0,6.7,96.0,1017.3,307.8,2.0,2.6,324.0,0.00,6.1,11.7,"21:15:36",1
"16/11/28","21:30",0.0,6.8,96.3,1017.3,319.1,2.0,2.7,328.2,0.00,6.3,11.5,"21:29:44",1
"16/11/28","21:40",0.0,7.0,96.4,1017.1,318.5,2.2,3.5,316.6,0.00,6.5,11.6,"21:38:40",1
"16/11/28","21:50",0.0,7.0,96.4,1017.5,321.4,2.6,3.4,316.6,0.00,6.5,11.6,"21:47:36",1
"16/11/28","22:00",0.0,6.9,96.5,1017.3,317.9,2.6,3.7,319.2,0.00,6.4,11.6,"21:50:08",1
"16/11/28","22:10",0.0,6.9,96.6,1018.0,320.8,2.7,3.6,318.4,0.00,6.4,11.6,"22:04:16",1
"16/11/28","22:20",0.0,6.9,96.6,1017.5,325.5,2.8,4.1,330.4,0.00,6.4,11.3,"22:15:36",1
"16/11/28","22:30",0.0,6.9,96.6,1017.8,319.9,2.5,3.6,326.4,0.00,6.4,11.4,"22:24:24",1
"16/11/28","22:40",0.0,6.8,96.6,1018.0,310.8,2.0,2.6,316.4,0.00,6.3,11.4,"22:35:44",1
"16/11/28","22:50",0.0,6.6,96.8,1017.5,315.8,2.5,3.3,322.1,0.00,6.2,11.4,"22:48:24",1
"16/11/28","23:00",0.0,6.6,97.0,1018.0,316.8,2.6,4.5,311.1,0.00,6.2,11.2,"22:56:24",1
"16/11/28","23:10",0.0,7.1,97.1,1017.8,320.2,2.7,3.6,333.0,0.00,6.7,11.3,"23:01:36",1
"16/11/28","23:20",0.0,7.3,96.9,1017.8,317.9,2.5,3.5,319.2,0.00,6.9,11.3,"23:10:32",1
"16/11/28","23:30",0.0,7.4,96.7,1017.8,320.7,2.8,5.2,343.5,0.00,7.0,11.4,"23:20:02",1
"16/11/28","23:40",0.0,7.3,96.4,1017.8,320.1,2.7,4.3,343.3,0.00,6.8,11.2,"23:30:08",1
"16/11/28","23:50",0.0,7.0,96.2,1017.8,312.2,2.7,4.2,320.0,0.00,6.5,11.0,"23:41:52",1
"16/11/28","24:00",0.0,6.6,96.3,1018.5,315.1,3.0,4.7,310.7,0.00,6.1,11.1,"23:54:32",1
